DW9396 Weather Reports


time (UTC)temp
C
wind
direction
speed
KPH
gust
KPH
rain 1hr
cm
rain 24hr
cm
rain mn
cm
humidity
%
barometer
mb
20260506061544 9 77 0.0 0.0 0.00 0.58 0.28 96 1017.1
20260506044537 9 79 0.0 0.0 0.00 0.69 0.28 95 1016.5
20260506043034 9 79 0.0 0.0 0.00 0.69 0.28 95 1016.4
20260506041533 8 79 0.0 0.0 0.00 0.69 0.28 95 1016.3
20260506040037 8 79 0.0 0.0 0.00 0.69 0.28 95 1016.0
20260506034542 8 3 0.0 0.0 0.00 0.71 0.28 94 1015.9
20260506033032 9 4 0.0 0.0 0.00 0.71 0.28 94 1015.5
20260506031531 10 4 0.0 0.0 0.00 0.71 0.28 94 1015.2
20260506030037 10 3 0.0 0.0 0.00 0.71 0.28 94 1015.3
20260506024553 10 4 0.0 0.0 0.00 0.71 0.28 93 1015.4
20260506023023 10 3 0.0 0.0 0.03 0.71 0.28 93 1015.2
20260506021524 10 3 0.0 0.0 0.03 0.71 0.28 93 1015.2
20260506020023 10 4 0.0 0.0 0.03 0.71 0.28 93 1015.1
20260506014521 10 3 0.0 1.6 0.03 0.71 0.28 93 1015.2
20260506013033 10 4 0.0 0.0 0.00 0.69 0.25 93 1015.1
20260506011520 10 3 0.0 1.6 0.00 0.69 0.25 93 1015.1
20260506010021 10 3 0.0 0.0 0.00 0.69 0.25 93 1014.9
20260506004517 10 3 0.0 1.6 0.00 0.69 0.25 93 1014.9
20260506003019 10 4 0.0 1.6 0.00 0.69 0.25 92 1014.9
20260506001520 10 4 0.0 0.0 0.00 0.69 0.25 92 1014.7
20260506000017 10 4 0.0 1.6 0.00 0.69 0.25 92 1014.6
20260505234516 10 4 0.0 1.6 0.00 0.71 0.25 92 1014.6
20260505233018 10 3 0.0 1.6 0.00 0.71 0.25 91 1014.5
20260505231514 10 4 0.0 1.6 0.00 0.71 0.25 91 1014.4
20260505230033 10 4 0.0 1.6 0.00 0.71 0.25 92 1014.4
20260505224513 10 3 0.0 1.6 0.00 0.79 0.25 92 1014.4
20260505223011 10 4 0.0 0.0 0.00 0.79 0.25 91 1014.5
20260505221511 10 4 0.0 1.6 0.00 0.79 0.25 91 1014.6
20260505220010 10 1 0.0 0.0 0.00 0.79 0.25 91 1014.6
20260505214511 10 1 0.0 1.6 0.00 1.14 0.25 90 1014.7
20260505213011 10 18 0.0 1.6 0.00 1.14 0.25 90 1014.7
20260505211510 10 34 0.0 1.6 0.00 1.14 0.25 89 1014.7
20260505210009 10 19 0.0 0.0 0.00 1.14 0.25 90 1014.7
20260505204508 10 19 0.0 0.0 0.00 1.40 0.25 90 1014.6
20260505203009 10 13 0.0 0.0 0.00 1.40 0.25 90 1014.7
20260505201509 10 360 0.0 0.0 0.00 1.40 0.25 90 1014.6
20260505200018 10 360 0.0 0.0 0.00 1.40 0.25 90 1014.6
20260505194507 10 352 0.0 0.0 0.00 1.40 0.25 90 1014.6
20260505193009 10 352 0.0 0.0 0.00 1.40 0.25 91 1014.6
20260505191504 10 20 0.0 0.0 0.00 1.40 0.25 89 1014.4
20260505190003 10 18 0.0 0.0 0.00 1.40 0.25 90 1014.3
20260505184503 10 22 0.0 0.0 0.00 1.40 0.25 90 1014.3
20260505183003 10 23 0.0 0.0 0.00 1.40 0.25 89 1014.3
20260505181502 10 281 0.0 0.0 0.00 1.40 0.25 87 1014.2
20260505180104 10 8 0.0 1.6 0.00 1.40 0.25 88 1014.0
20260505174600 11 297 0.0 1.6 0.00 1.45 0.25 87 1013.7
20260505173059 11 15 0.0 1.6 0.00 1.45 0.25 87 1013.8
20260505171557 11 345 0.0 3.2 0.00 1.45 0.25 87 1013.7
20260505170057 11 8 0.0 1.6 0.00 1.45 0.25 88 1013.8
20260505164601 11 193 0.0 1.6 0.00 1.50 0.25 92 1013.7
20260505163056 10 246 0.0 3.2 0.00 1.50 0.25 96 1013.6
20260505161547 8 8 0.0 1.6 0.00 1.50 0.25 96 1013.5
20260505153101 7 11 0.0 1.6 0.00 1.60 0.25 97 1013.5
20260505151553 7 10 0.0 0.0 0.00 1.60 0.25 97 1013.7
20260505124538 7 30 0.0 0.0 0.05 1.68 0.25 96 1013.1
20260505123038 7 30 0.0 0.0 0.05 1.68 0.25 96 1012.9
20260505121538 7 30 0.0 0.0 0.05 1.65 0.23 96 1013.0
20260505120038 7 30 0.0 0.0 0.05 1.63 0.20 96 1012.9
20260505114541 7 30 0.0 1.6 0.05 1.63 0.20 96 1012.8
20260505113034 7 30 0.0 1.6 0.08 1.63 0.20 96 1012.7
20260505111538 7 30 0.0 0.0 0.10 1.60 0.18 96 1012.8
20260505101532 7 30 0.0 0.0 0.03 1.50 0.08 96 1013.0
20260505100040 7 30 0.0 0.0 0.03 1.50 0.08 96 1013.1
20260505094528 7 30 0.0 0.0 0.00 1.45 0.05 96 1013.3
20260505093027 7 30 0.0 0.0 0.00 1.45 0.05 96 1013.1
20260505091526 7 30 0.0 1.6 0.00 1.45 0.05 96 1013.3
20260505090044 7 30 0.0 0.0 0.00 1.45 0.05 96 1013.2
20260505084533 7 30 0.0 0.0 0.00 1.45 0.05 96 1013.3
20260505083035 7 30 0.0 0.0 0.00 1.45 0.05 96 1013.6
20260505081536 7 30 0.0 0.0 0.03 1.45 0.05 96 1013.6
20260505080036 7 30 0.0 0.0 0.08 1.45 0.05 96 1013.6
20260505074522 7 30 0.0 1.6 0.15 1.45 0.05 96 1013.5
20260505073018 7 30 0.0 1.6 0.25 1.45 0.05 95 1013.5
20260505071524 7 31 0.0 0.0 0.28 1.42 0.03 95 1013.4